FW7086 Weather Reports


time (UTC)temp
F
wind
direction
speed
knots
gust
knots
rain 1hr
in
rain 24hr
in
rain mn
in
humidity
%
barometer
mb
20260509150312 64 143 3.5 5.2 0.00 0.00 0.00 65 1005.6
20260509145809 64 175 1.7 3.5 0.00 0.00 0.00 66 1005.6
20260509145309 63 239 4.3 8.7 0.00 0.00 0.00 67 1005.8
20260509144806 63 182 4.3 6.1 0.00 0.00 0.00 68 1005.6
20260509144303 63 162 2.6 3.5 0.00 0.00 0.00 68 1005.6
20260509143800 63 208 0.9 3.5 0.00 0.00 0.00 69 1005.9
20260509143257 63 241 2.6 3.5 0.00 0.00 0.00 69 1005.8
20260509142753 63 202 4.3 7.0 0.00 0.00 0.00 69 1005.6
20260509142249 63 204 3.5 3.5 0.00 0.00 0.00 69 1005.4
20260509141745 62 194 1.7 2.6 0.00 0.00 0.00 70 1005.5
20260509141242 62 180 3.5 3.5 0.00 0.00 0.00 71 1005.4
20260509140739 62 145 3.5 5.2 0.00 0.00 0.00 71 1005.4
20260509140236 61 215 5.2 7.0 0.00 0.00 0.00 73 1005.3
20260509135733 61 274 4.3 6.1 0.00 0.00 0.00 73 1005.5
20260509135231 61 163 2.6 5.2 0.00 0.00 0.00 73 1005.2
20260509134728 60 183 2.6 3.5 0.00 0.00 0.00 76 1005.0
20260509134226 60 233 2.6 5.2 0.00 0.00 0.00 75 1005.3
20260509133723 59 169 5.2 8.7 0.00 0.00 0.00 76 1005.2
20260509133219 60 86 2.6 3.5 0.00 0.00 0.00 77 1005.3
20260509132718 59 36 4.3 5.2 0.00 0.00 0.00 78 1005.5
20260509132216 59 184 3.5 8.7 0.00 0.00 0.00 78 1005.6
20260509131712 59 171 1.7 2.6 0.00 0.00 0.00 78 1006.0
20260509131209 59 248 1.7 1.7 0.00 0.00 0.00 79 1005.8
20260509130705 58 208 4.3 6.1 0.00 0.00 0.00 79 1005.6
20260509130201 58 182 3.5 5.2 0.00 0.00 0.00 79 1005.6
20260509125658 58 232 2.6 2.6 0.00 0.00 0.00 80 1005.6
20260509125154 58 180 1.7 2.6 0.00 0.00 0.00 81 1005.4
20260509124651 57 164 0.9 0.9 0.00 0.00 0.00 82 1005.4
20260509124148 57 193 2.6 5.2 0.00 0.00 0.00 83 1005.5
20260509123646 57 209 2.6 3.5 0.00 0.00 0.00 83 1005.5
20260509123143 56 193 2.6 3.5 0.00 0.00 0.00 85 1005.5
20260509122638 56 168 3.5 5.2 0.00 0.00 0.00 85 1005.4
20260509122136 55 115 3.5 3.5 0.00 0.00 0.00 86 1005.4
20260509121632 55 190 2.6 3.5 0.00 0.00 0.00 87 1005.3
20260509121130 55 169 3.5 3.5 0.00 0.00 0.00 88 1005.3
20260509120628 54 209 3.5 7.0 0.00 0.00 0.00 89 1005.5
20260509120126 54 169 2.6 2.6 0.00 0.00 0.00 90 1005.4
20260509115623 54 103 2.6 2.6 0.00 0.00 0.00 90 1005.5
20260509115121 54 188 2.6 5.2 0.00 0.00 0.00 90 1005.4
20260509114618 54 149 2.6 3.5 0.00 0.00 0.00 90 1005.2
20260509114117 54 199 1.7 2.6 0.00 0.00 0.00 90 1005.3
20260509113615 54 233 2.6 3.5 0.00 0.00 0.00 90 1005.1
20260509113112 54 226 2.6 3.5 0.00 0.00 0.00 90 1005.3
20260509112608 53 174 2.6 2.6 0.00 0.00 0.00 90 1005.1
20260509112105 53 239 4.3 5.2 0.00 0.00 0.00 90 1005.0
20260509111603 54 193 0.9 1.7 0.00 0.00 0.00 90 1005.1
20260509111059 54 205 1.7 2.6 0.00 0.00 0.00 90 1005.0
20260509110557 54 230 0.9 0.9 0.00 0.00 0.00 89 1005.2
20260509110054 54 176 3.5 5.2 0.00 0.00 0.00 89 1004.7
20260509105552 54 194 1.7 2.6 0.00 0.00 0.00 89 1004.6
20260509105049 54 161 4.3 6.1 0.00 0.00 0.00 89 1004.8
20260509104546 54 180 1.7 2.6 0.00 0.00 0.00 89 1004.8
20260509104043 54 221 2.6 2.6 0.00 0.00 0.00 89 1004.9
20260509103541 54 228 3.5 5.2 0.00 0.00 0.00 89 1004.8
20260509103039 54 196 3.5 6.1 0.00 0.00 0.00 88 1004.6
20260509102536 54 166 6.1 7.8 0.00 0.00 0.00 88 1004.7
20260509102032 54 145 1.7 2.6 0.00 0.00 0.00 89 1004.6
20260509101529 54 142 1.7 1.7 0.00 0.00 0.00 89 1004.7
20260509101026 54 175 1.7 2.6 0.00 0.00 0.00 89 1004.8
20260509100523 54 135 1.7 1.7 0.00 0.00 0.00 89 1004.9
20260509100020 54 196 2.6 3.5 0.00 0.00 0.00 89 1004.9
20260509095517 54 155 0.9 1.7 0.00 0.00 0.00 89 1005.0
20260509095014 54 161 0.9 1.7 0.00 0.00 0.00 89 1005.2
20260509094510 54 158 1.7 2.6 0.00 0.00 0.00 89 1005.2
20260509094008 54 192 2.6 2.6 0.00 0.00 0.00 89 1005.2
20260509093506 53 183 1.7 2.6 0.00 0.00 0.00 90 1005.1
20260509093003 54 166 0.9 0.9 0.00 0.00 0.00 90 1005.4
20260509092500 53 212 0.9 1.7 0.00 0.00 0.00 90 1005.6
20260509091959 53 174 3.5 3.5 0.00 0.00 0.00 90 1005.4
20260509091456 53 172 0.9 0.9 0.00 0.00 0.00 90 1005.3
20260509090953 53 171 0.9 1.7 0.00 0.00 0.00 90 1005.2
20260509090450 53 220 1.7 2.6 0.00 0.00 0.00 90 1005.4
20260509085947 53 193 3.5 5.2 0.00 0.00 0.00 91 1005.4
20260509085444 53 176 2.6 3.5 0.00 0.00 0.00 91 1005.5
20260509084941 53 149 0.9 1.7 0.00 0.00 0.00 91 1005.6
20260509084437 53 222 1.7 2.6 0.00 0.00 0.00 90 1005.6
20260509083935 53 186 3.5 5.2 0.00 0.00 0.00 90 1005.6
20260509083432 53 170 2.6 2.6 0.00 0.00 0.00 90 1005.5
20260509082929 53 173 0.9 0.9 0.00 0.00 0.00 90 1005.4
20260509082426 53 235 1.7 1.7 0.00 0.00 0.00 90 1005.6
20260509081922 53 164 1.7 2.6 0.00 0.00 0.00 90 1005.5
20260509081420 53 170 0.9 1.7 0.00 0.00 0.00 89 1005.4
20260509080917 53 195 2.6 2.6 0.00 0.00 0.00 89 1005.3
20260509080415 53 155 3.5 3.5 0.00 0.00 0.00 89 1005.5
20260509075913 54 194 0.9 0.9 0.00 0.00 0.00 89 1005.3
20260509075410 54 184 3.5 3.5 0.00 0.00 0.00 88 1005.5
20260509074908 54 191 2.6 3.5 0.00 0.00 0.00 88 1005.8
20260509074405 54 157 2.6 2.6 0.00 0.00 0.00 88 1005.6
20260509073901 54 159 0.9 1.7 0.00 0.00 0.00 87 1005.9
20260509073358 54 147 0.0 0.0 0.00 0.00 0.00 87 1005.9
20260509072854 54 184 2.6 2.6 0.00 0.00 0.00 87 1005.8
20260509072351 54 170 0.9 0.9 0.00 0.00 0.00 86 1005.9
20260509071847 55 193 0.9 1.7 0.00 0.00 0.00 86 1006.1
20260509071344 55 172 1.7 1.7 0.00 0.00 0.00 86 1006.3
20260509070842 55 172 0.9 1.7 0.00 0.00 0.00 86 1006.2
20260509070338 55 151 1.7 2.6 0.00 0.00 0.00 85 1006.2
20260509065834 55 228 1.7 2.6 0.00 0.00 0.00 85 1006.4
20260509065331 55 235 1.7 1.7 0.00 0.00 0.00 85 1006.3
20260509064826 55 192 0.9 0.9 0.00 0.00 0.00 85 1006.4
20260509064325 55 177 1.7 1.7 0.00 0.00 0.00 85 1006.5
20260509063822 55 185 0.9 1.7 0.00 0.00 0.00 84 1006.5
20260509063318 55 204 3.5 3.5 0.00 0.00 0.00 84 1006.5
20260509062816 55 208 0.9 2.6 0.00 0.00 0.00 84 1006.6
20260509062312 55 189 1.7 1.7 0.00 0.00 0.00 84 1006.5
20260509061809 55 229 0.9 0.9 0.00 0.00 0.00 84 1006.6
20260509061308 56 143 3.5 6.1 0.00 0.00 0.00 84 1006.6
20260509060804 56 124 2.6 3.5 0.00 0.00 0.00 84 1006.6
20260509060301 56 159 1.7 2.6 0.00 0.00 0.00 83 1007.1
20260509055756 56 160 2.6 2.6 0.00 0.00 0.00 83 1007.0
20260509055252 56 160 3.5 5.2 0.00 0.00 0.00 83 1007.0
20260509054749 56 193 1.7 2.6 0.00 0.00 0.00 83 1006.8
20260509054246 56 263 2.6 5.2 0.00 0.00 0.00 83 1007.1
20260509053745 57 168 1.7 2.6 0.00 0.00 0.00 83 1006.8
20260509053241 57 179 0.0 0.9 0.00 0.00 0.00 82 1007.0
20260509052739 57 207 4.3 6.1 0.00 0.00 0.00 82 1007.0
20260509052237 57 233 2.6 3.5 0.00 0.00 0.00 82 1007.0
20260509051734 57 203 1.7 2.6 0.00 0.00 0.00 81 1006.9
20260509051232 57 202 3.5 5.2 0.00 0.00 0.00 81 1006.9
20260509050728 57 189 2.6 2.6 0.00 0.00 0.00 80 1007.1
20260509050225 57 177 1.7 1.7 0.00 0.00 0.00 80 1007.0
20260509045722 57 151 2.6 5.2 0.00 0.00 0.00 79 1006.9
20260509045219 57 162 2.6 3.5 0.00 0.00 0.00 79 1007.0
20260509044716 58 183 0.9 0.9 0.00 0.00 0.00 78 1007.0
20260509044214 58 162 2.6 3.5 0.00 0.00 0.00 77 1007.0
20260509043710 58 151 1.7 2.6 0.00 0.00 0.00 77 1007.1
20260509043206 58 207 3.5 3.5 0.00 0.00 0.00 76 1007.0
20260509042703 58 204 3.5 5.2 0.00 0.00 0.00 76 1007.1
20260509042158 58 203 1.7 2.6 0.00 0.00 0.00 75 1007.1
20260509041655 58 190 3.5 3.5 0.00 0.00 0.00 74 1007.0
20260509041153 58 201 3.5 5.2 0.00 0.00 0.00 74 1007.0
20260509040651 58 194 5.2 7.0 0.00 0.00 0.00 73 1007.0
20260509040148 58 159 2.6 2.6 0.00 0.00 0.00 73 1007.1
20260509035644 59 162 0.9 0.9 0.00 0.00 0.00 72 1007.2
20260509035141 58 184 1.7 2.6 0.00 0.00 0.00 73 1007.3
20260509034639 58 200 1.7 1.7 0.00 0.00 0.00 73 1007.2
20260509034136 58 184 1.7 2.6 0.00 0.00 0.00 73 1007.2
20260509033633 58 156 0.9 1.7 0.00 0.00 0.00 73 1007.3
20260509033130 58 161 2.6 5.2 0.00 0.00 0.00 72 1007.3
20260509032627 57 197 5.2 7.0 0.00 0.00 0.00 72 1007.2
20260509032124 57 178 2.6 2.6 0.00 0.00 0.00 70 1007.4
20260509031622 57 195 2.6 2.6 0.00 0.00 0.00 70 1007.3
20260509031119 56 179 2.6 2.6 0.00 0.00 0.00 70 1007.4
20260509030617 56 159 1.7 1.7 0.00 0.00 0.00 69 1007.4
20260509030114 56 158 0.0 0.9 0.00 0.00 0.00 69 1007.2
20260509025610 55 155 0.9 0.9 0.00 0.00 0.00 70 1007.5
20260509025106 55 164 0.9 0.9 0.00 0.00 0.00 70 1007.4
20260509024602 55 142 0.0 0.0 0.00 0.00 0.00 70 1007.5
20260509024058 55 143 0.9 0.9 0.00 0.00 0.00 70 1007.5
20260509023556 55 113 0.0 0.0 0.00 0.00 0.00 71 1007.4
20260509023052 55 140 0.0 0.0 0.00 0.00 0.00 70 1007.4
20260509022548 55 140 0.0 0.0 0.00 0.00 0.00 70 1007.6
20260509022047 55 131 0.0 0.0 0.00 0.00 0.00 70 1007.5
20260509021543 55 130 0.0 0.0 0.00 0.00 0.00 70 1007.4
20260509021040 55 131 0.0 0.0 0.00 0.00 0.00 69 1007.7
20260509020539 56 115 0.0 0.0 0.00 0.00 0.00 68 1007.5
20260509020035 56 116 0.0 0.0 0.00 0.00 0.00 68 1007.4
20260509015534 56 132 0.0 0.0 0.00 0.00 0.00 68 1007.4
20260509015031 57 125 0.0 0.0 0.00 0.00 0.00 67 1007.4
20260509014528 57 153 0.0 0.0 0.00 0.00 0.00 67 1007.5
20260509014024 57 111 0.0 0.0 0.00 0.00 0.00 67 1007.4
20260509013521 57 106 0.0 0.0 0.00 0.00 0.00 67 1007.5
20260509013016 57 138 0.0 0.0 0.00 0.00 0.00 66 1007.4
20260509012514 57 138 0.0 0.0 0.00 0.00 0.00 65 1007.5
20260509012010 58 91 0.0 0.0 0.00 0.00 0.00 64 1007.4
20260509011508 58 85 0.0 0.0 0.00 0.00 0.00 64 1007.2
20260509011005 58 142 0.0 0.0 0.00 0.00 0.00 64 1007.2
20260509010503 58 120 0.0 0.0 0.00 0.00 0.00 64 1007.2
20260509005959 58 108 0.0 0.0 0.00 0.00 0.00 63 1007.4
20260509005458 58 53 2.6 3.5 0.00 0.00 0.00 62 1007.4
20260509004957 59 120 0.0 0.0 0.00 0.00 0.00 63 1007.3
20260509004454 59 63 0.9 0.9 0.00 0.00 0.00 62 1007.5
20260509003952 59 79 3.5 5.2 0.00 0.00 0.00 61 1007.2
20260509003450 60 155 0.9 0.9 0.00 0.00 0.00 62 1007.5
20260509002946 60 86 0.9 0.9 0.00 0.00 0.00 61 1007.2
20260509002445 60 49 0.9 0.9 0.00 0.00 0.00 61 1007.3
20260509001941 60 117 0.9 2.6 0.00 0.00 0.00 61 1007.5
20260509001438 60 85 1.7 3.5 0.00 0.00 0.00 62 1007.5
20260509000934 60 124 0.9 1.7 0.00 0.00 0.00 62 1007.4
20260509000433 61 64 0.9 1.7 0.00 0.00 0.00 61 1007.4
20260508235928 61 84 2.6 2.6 0.00 0.00 0.00 61 1007.5
20260508235427 61 97 0.9 1.7 0.00 0.00 0.00 61 1007.6
20260508234923 62 44 0.0 0.9 0.00 0.00 0.00 61 1007.5
20260508234420 62 85 0.9 0.9 0.00 0.00 0.00 61 1007.6
20260508233918 62 77 0.9 0.9 0.00 0.00 0.00 61 1007.6
20260508233417 62 59 0.9 1.7 0.00 0.00 0.00 61 1007.7
20260508232913 62 85 0.9 0.9 0.00 0.00 0.00 62 1007.7
20260508232410 62 76 5.2 7.0 0.00 0.00 0.00 61 1007.7
20260508231908 62 167 3.5 5.2 0.00 0.00 0.00 61 1007.6
20260508231404 62 175 1.7 1.7 0.00 0.00 0.00 61 1007.6
20260508230901 62 178 0.9 0.9 0.00 0.00 0.00 61 1007.6
20260508230358 63 139 1.7 2.6 0.00 0.00 0.00 60 1007.7
20260508225855 63 116 1.7 2.6 0.00 0.00 0.00 61 1007.5
20260508225351 63 355 1.7 2.6 0.00 0.00 0.00 61 1007.6
20260508224850 62 71 0.0 0.9 0.00 0.00 0.00 62 1007.5
20260508224347 63 26 0.9 0.9 0.00 0.00 0.00 62 1007.8
20260508223844 63 59 5.2 7.0 0.00 0.00 0.00 61 1007.8
20260508223341 64 56 0.9 0.9 0.00 0.00 0.00 61 1007.8
20260508222839 64 107 3.5 6.1 0.00 0.00 0.00 60 1007.8
20260508222336 62 106 1.7 1.7 0.00 0.00 0.00 62 1007.8
20260508221833 63 339 1.7 1.7 0.00 0.00 0.00 61 1007.8
20260508221328 64 157 1.7 1.7 0.00 0.00 0.00 61 1008.0
20260508220825 64 45 3.5 6.1 0.00 0.00 0.00 61 1007.9
20260508220321 65 125 0.9 1.7 0.00 0.00 0.00 59 1007.8
20260508215818 64 91 1.7 1.7 0.00 0.00 0.00 60 1008.0
20260508215314 63 162 2.6 3.5 0.00 0.00 0.00 61 1008.0
20260508214812 64 48 0.9 0.9 0.00 0.00 0.00 61 1008.1
20260508214308 64 81 0.0 0.9 0.00 0.00 0.00 61 1008.1
20260508213805 64 49 1.7 2.6 0.00 0.00 0.00 60 1007.9
20260508213302 64 20 0.9 0.9 0.00 0.00 0.00 58 1008.0
20260508212758 64 93 0.9 0.9 0.00 0.00 0.00 59 1008.0
20260508212254 64 101 2.6 2.6 0.00 0.00 0.00 59 1007.9
20260508211750 63 47 0.9 0.9 0.00 0.00 0.00 60 1007.9
20260508211246 63 103 1.7 2.6 0.00 0.00 0.00 57 1008.1
20260508210744 63 83 2.6 3.5 0.00 0.00 0.00 56 1008.1
20260508210241 63 101 4.3 6.1 0.00 0.00 0.00 55 1008.0
20260508205738 63 85 4.3 7.0 0.00 0.00 0.00 55 1008.2
20260508205234 63 80 1.7 1.7 0.00 0.00 0.00 56 1008.0
20260508204730 63 90 4.3 6.1 0.00 0.00 0.00 55 1008.2
20260508204227 64 32 1.7 2.6 0.00 0.00 0.00 54 1008.2
20260508203723 63 108 0.9 1.7 0.00 0.00 0.00 55 1008.2
20260508203219 64 143 2.6 2.6 0.00 0.00 0.00 55 1008.4
20260508202715 64 64 2.6 6.1 0.00 0.00 0.00 55 1008.4
20260508202213 64 111 2.6 2.6 0.00 0.00 0.00 54 1008.5
20260508201709 64 97 2.6 3.5 0.00 0.00 0.00 54 1008.4
20260508201206 64 143 0.9 1.7 0.00 0.00 0.00 54 1008.6
20260508200703 64 51 1.7 3.5 0.00 0.00 0.00 54 1008.6
20260508200159 64 122 5.2 7.0 0.00 0.00 0.00 52 1008.7
20260508195656 65 93 0.9 0.9 0.00 0.00 0.00 53 1008.8
20260508195152 65 193 0.9 0.9 0.00 0.00 0.00 46 1009.0
20260508194649 66 63 0.0 0.9 0.00 0.00 0.00 46 1008.9
20260508194146 65 220 0.9 0.9 0.00 0.00 0.00 45 1008.9
20260508193643 66 35 0.9 0.9 0.00 0.00 0.00 46 1009.1
20260508193139 66 344 0.9 0.9 0.00 0.00 0.00 46 1009.1
20260508192636 65 94 0.9 0.9 0.00 0.00 0.00 48 1009.2
20260508192134 65 162 0.0 0.9 0.00 0.00 0.00 49 1009.1
20260508191630 66 242 0.0 0.9 0.00 0.00 0.00 47 1009.1
20260508191127 66 230 0.9 1.7 0.00 0.00 0.00 47 1009.3
20260508190625 66 165 3.5 3.5 0.00 0.00 0.00 47 1009.4
20260508190121 66 2 0.0 0.9 0.00 0.00 0.00 46 1009.5
20260508185618 68 140 3.5 6.1 0.00 0.00 0.00 43 1009.6
20260508185115 68 171 1.7 1.7 0.00 0.00 0.00 44 1009.5
20260508184612 67 245 1.7 2.6 0.00 0.00 0.00 42 1009.6
20260508184109 66 171 0.9 1.7 0.00 0.00 0.00 42 1009.7
20260508183606 66 151 0.9 0.9 0.00 0.00 0.00 43 1009.8
20260508183102 66 52 0.0 0.0 0.00 0.00 0.00 44 1009.8
20260508182558 66 191 3.5 5.2 0.00 0.00 0.00 44 1009.9
20260508182055 66 137 1.7 1.7 0.00 0.00 0.00 44 1009.9
20260508181549 66 77 1.7 1.7 0.00 0.00 0.00 45 1010.0
20260508181047 66 323 0.0 0.0 0.00 0.00 0.00 47 1010.0
20260508180544 66 349 0.9 0.9 0.00 0.00 0.00 45 1010.0
20260508180040 66 141 0.0 0.0 0.00 0.00 0.00 47 1010.2
20260508175537 64 44 2.6 3.5 0.00 0.00 0.00 50 1010.4
20260508175034 65 157 0.9 0.9 0.00 0.00 0.00 43 1010.3
20260508174532 65 167 1.7 1.7 0.00 0.00 0.00 43 1010.3
20260508174028 65 60 0.9 0.9 0.00 0.00 0.00 48 1010.4
20260508173525 64 104 0.9 0.9 0.00 0.00 0.00 48 1010.5
20260508173021 64 82 3.5 3.5 0.00 0.00 0.00 46 1010.9
20260508172519 65 275 0.9 1.7 0.00 0.00 0.00 42 1010.8
20260508172015 65 181 1.7 1.7 0.00 0.00 0.00 43 1011.0
20260508171512 65 168 1.7 1.7 0.00 0.00 0.00 42 1011.0
20260508171008 65 218 2.6 5.2 0.00 0.00 0.00 44 1011.2
20260508170506 65 129 1.7 2.6 0.00 0.00 0.00 41 1011.2
20260508170002 65 84 1.7 1.7 0.00 0.00 0.00 41 1011.4
20260508165500 64 142 0.9 0.9 0.00 0.00 0.00 39 1011.5
20260508164956 63 190 2.6 3.5 0.00 0.00 0.00 39 1011.6
20260508164453 64 205 1.7 2.6 0.00 0.00 0.00 39 1011.4
20260508163950 63 163 1.7 2.6 0.00 0.00 0.00 39 1011.6
20260508163448 62 203 1.7 1.7 0.00 0.00 0.00 41 1011.7
20260508162943 62 182 2.6 2.6 0.00 0.00 0.00 37 1012.0
20260508162441 63 99 1.7 2.6 0.00 0.00 0.00 40 1011.8
20260508161938 64 197 0.9 0.9 0.00 0.00 0.00 39 1011.9
20260508161435 64 162 1.7 2.6 0.00 0.00 0.00 41 1012.0
20260508160932 62 166 0.9 1.7 0.00 0.00 0.00 42 1012.0
20260508160431 64 331 0.0 0.9 0.00 0.00 0.00 43 1011.8
20260508155926 64 98 1.7 2.6 0.00 0.00 0.00 41 1011.9
20260508155424 62 176 0.9 0.9 0.00 0.00 0.00 39 1012.2
20260508154921 62 58 4.3 5.2 0.00 0.00 0.00 38 1012.2
20260508154418 62 121 1.7 1.7 0.00 0.00 0.00 42 1012.2
20260508153915 62 109 1.7 2.6 0.00 0.00 0.00 45 1012.2
20260508153412 61 83 0.9 1.7 0.00 0.00 0.00 46 1012.3
20260508152908 61 48 0.9 1.7 0.00 0.00 0.00 46 1012.4
20260508152405 62 167 0.9 1.7 0.00 0.00 0.00 46 1012.3
20260508151901 60 187 0.9 1.7 0.00 0.00 0.00 49 1012.4
20260508151358 60 169 3.5 5.2 0.00 0.00 0.00 48 1012.6
20260508150854 60 59 0.9 0.9 0.00 0.00 0.00 52 1012.4